Météo par heure à Abbeville

Ce jour, 1 Octobre, Jeudi

Heure Température Précipitation Vent Pression Humidité
00:00 +15°C° 0.1 mm 6 m/s 750 mmHg 80%
01:00 +15°C° 0.2 mm 6 m/s 749 mmHg 82%
02:00 +14°C° 0.2 mm 6 m/s 749 mmHg 83%
03:00 +14°C° 0.2 mm 6 m/s 748 mmHg 85%
04:00 +14°C° 0.8 mm 6 m/s 748 mmHg 87%
05:00 +14°C° 0.8 mm 5 m/s 747 mmHg 89%
06:00 +13°C° 0.8 mm 5 m/s 747 mmHg 91%
07:00 +13°C° 1 mm 5 m/s 747 mmHg 89%
08:00 +13°C° 1 mm 5 m/s 747 mmHg 86%
09:00 +13°C° 1 mm 5 m/s 747 mmHg 84%
10:00 +14°C° 0.5 mm 6 m/s 747 mmHg 80%
11:00 +15°C° 0.5 mm 7 m/s 747 mmHg 76%
12:00 +15°C° 0.5 mm 7 m/s 748 mmHg 71%
13:00 +15°C° 0.3 mm 7 m/s 748 mmHg 69%
14:00 +15°C° 0.3 mm 7 m/s 747 mmHg 67%
15:00 +14°C° 0.3 mm 7 m/s 747 mmHg 65%
16:00 +13°C° 0 mm 5 m/s 747 mmHg 69%
17:00 +12°C° 0 mm 4 m/s 747 mmHg 74%
18:00 +11°C° 0 mm 3 m/s 747 mmHg 78%
19:00 +11°C° 0 mm 3 m/s 747 mmHg 77%
20:00 +11°C° 0 mm 3 m/s 746 mmHg 77%
21:00 +11°C° 0 mm 3 m/s 746 mmHg 76%
22:00 +10°C° 0 mm 3 m/s 745 mmHg 78%
23:00 +10°C° 0 mm 4 m/s 745 mmHg 80%

Demain, 2 Octobre, Vendredi

Heure Température Précipitation Vent Pression Humidité
00:00 +8°C° 0 mm 4 m/s 744 mmHg 82%
01:00 +8°C° 0 mm 4 m/s 743 mmHg 81%
02:00 +8°C° 0 mm 5 m/s 743 mmHg 80%
03:00 +8°C° 0 mm 6 m/s 742 mmHg 80%
04:00 +9°C° 0 mm 6 m/s 741 mmHg 81%
05:00 +9°C° 0 mm 7 m/s 741 mmHg 82%
06:00 +9°C° 0 mm 7 m/s 740 mmHg 84%
07:00 +9°C° 0.7 mm 8 m/s 740 mmHg 85%
08:00 +10°C° 0.7 mm 8 m/s 739 mmHg 87%
09:00 +10°C° 0.7 mm 9 m/s 739 mmHg 88%
10:00 +11°C° 0.6 mm 8 m/s 739 mmHg 87%
11:00 +11°C° 0.6 mm 8 m/s 739 mmHg 87%
12:00 +12°C° 0.6 mm 7 m/s 740 mmHg 86%
13:00 +12°C° 0.1 mm 7 m/s 739 mmHg 86%
14:00 +14°C° 0.1 mm 6 m/s 739 mmHg 85%
15:00 +14°C° 0.1 mm 6 m/s 739 mmHg 85%
16:00 +14°C° 0.1 mm 5 m/s 739 mmHg 86%
17:00 +13°C° 0.1 mm 5 m/s 740 mmHg 88%
18:00 +13°C° 0.1 mm 5 m/s 740 mmHg 90%
19:00 +13°C° 0.9 mm 6 m/s 739 mmHg 91%
20:00 +12°C° 0.9 mm 7 m/s 739 mmHg 91%
21:00 +12°C° 0.9 mm 8 m/s 738 mmHg 91%
22:00 +12°C° 0.3 mm 8 m/s 738 mmHg 90%
23:00 +12°C° 0.3 mm 8 m/s 737 mmHg 89%

Après-demain, 3 Octobre, Samedi

Heure Température Précipitation Vent Pression Humidité
00:00 +13°C° 0.3 mm 8 m/s 736 mmHg 88%
01:00 +13°C° 0.4 mm 8 m/s 736 mmHg 89%
02:00 +14°C° 0.4 mm 7 m/s 736 mmHg 89%
03:00 +14°C° 0.4 mm 7 m/s 736 mmHg 90%
04:00 +13°C° 1.5 mm 6 m/s 737 mmHg 92%
05:00 +13°C° 1.5 mm 5 m/s 737 mmHg 93%
06:00 +13°C° 1.5 mm 3 m/s 737 mmHg 95%
07:00 +13°C° 2.1 mm 3 m/s 737 mmHg 95%
08:00 +12°C° 2.1 mm 3 m/s 738 mmHg 95%
09:00 +13°C° 2.1 mm 2 m/s 738 mmHg 95%
10:00 +12°C° 0.9 mm 3 m/s 738 mmHg 94%
11:00 +12°C° 0.9 mm 4 m/s 738 mmHg 92%
12:00 +10°C° 0.9 mm 5 m/s 738 mmHg 91%
13:00 +11°C° 0.4 mm 4 m/s 737 mmHg 89%
14:00 +12°C° 0.4 mm 4 m/s 737 mmHg 87%
15:00 +12°C° 0.4 mm 3 m/s 736 mmHg 86%
16:00 +12°C° 0.2 mm 3 m/s 736 mmHg 86%
17:00 +11°C° 0.2 mm 3 m/s 735 mmHg 87%
18:00 +11°C° 0.2 mm 3 m/s 735 mmHg 88%
19:00 +11°C° 0.4 mm 3 m/s 734 mmHg 88%
20:00 +11°C° 0.4 mm 4 m/s 734 mmHg 89%
21:00 +10°C° 0.4 mm 5 m/s 734 mmHg 90%
22:00 +10°C° 2.1 mm 5 m/s 733 mmHg 91%
23:00 +10°C° 2.1 mm 6 m/s 733 mmHg 92%

4 Octobre, Dimanche

Heure Température Précipitation Vent Pression Humidité
00:00 +10°C° 2.1 mm 7 m/s 733 mmHg 93%
01:00 +10°C° 1.8 mm 8 m/s 733 mmHg 92%
02:00 +10°C° 1.8 mm 9 m/s 733 mmHg 91%
03:00 +11°C° 1.8 mm 10 m/s 733 mmHg 90%
04:00 +9°C° 0.4 mm 10 m/s 734 mmHg 88%
05:00 +9°C° 0.4 mm 10 m/s 734 mmHg 86%
06:00 +9°C° 0.4 mm 10 m/s 735 mmHg 85%
07:00 +9°C° 0.2 mm 10 m/s 736 mmHg 83%
08:00 +9°C° 0.2 mm 10 m/s 736 mmHg 82%
09:00 +9°C° 0.2 mm 11 m/s 737 mmHg 81%
10:00 +11°C° 0.1 mm 11 m/s 738 mmHg 77%
11:00 +11°C° 0.1 mm 10 m/s 738 mmHg 72%
12:00 +12°C° 0.1 mm 10 m/s 739 mmHg 68%
13:00 +12°C° 0.2 mm 10 m/s 739 mmHg 69%
14:00 +12°C° 0.2 mm 9 m/s 738 mmHg 70%
15:00 +12°C° 0.2 mm 9 m/s 738 mmHg 70%
16:00 +12°C° 0 mm 9 m/s 739 mmHg 72%
17:00 +11°C° 0 mm 8 m/s 739 mmHg 73%
18:00 +11°C° 0 mm 8 m/s 739 mmHg 74%
19:00 +10°C° 0.2 mm 9 m/s 739 mmHg 76%
20:00 +10°C° 0.2 mm 9 m/s 739 mmHg 78%
21:00 +10°C° 0.2 mm 9 m/s 739 mmHg 79%
22:00 +9°C° 0.4 mm 10 m/s 739 mmHg 82%
23:00 +9°C° 0.4 mm 10 m/s 740 mmHg 85%

5 Octobre, Lundi

Heure Température Précipitation Vent Pression Humidité
00:00 +8°C° 0.4 mm 10 m/s 740 mmHg 87%
01:00 +9°C° 0.8 mm 10 m/s 740 mmHg 88%
02:00 +10°C° 0.8 mm 9 m/s 740 mmHg 89%
03:00 +10°C° 0.8 mm 9 m/s 740 mmHg 90%
04:00 +10°C° 1.4 mm 8 m/s 740 mmHg 91%
05:00 +11°C° 1.4 mm 8 m/s 740 mmHg 92%
06:00 +11°C° 1.4 mm 8 m/s 741 mmHg 92%
07:00 +11°C° 1.2 mm 8 m/s 741 mmHg 92%
08:00 +11°C° 1.2 mm 7 m/s 741 mmHg 92%
09:00 +11°C° 1.2 mm 7 m/s 741 mmHg 92%
10:00 +12°C° 0.8 mm 7 m/s 742 mmHg 89%
11:00 +13°C° 0.8 mm 6 m/s 742 mmHg 87%
12:00 +14°C° 0.8 mm 6 m/s 742 mmHg 85%
13:00 +14°C° 0.2 mm 6 m/s 743 mmHg 82%
14:00 +15°C° 0.2 mm 6 m/s 743 mmHg 79%
15:00 +15°C° 0.2 mm 7 m/s 743 mmHg 76%
16:00 +15°C° 0.5 mm 7 m/s 743 mmHg 80%
17:00 +14°C° 0.5 mm 7 m/s 744 mmHg 84%
18:00 +14°C° 0.5 mm 7 m/s 744 mmHg 88%
19:00 +12°C° 0.9 mm 7 m/s 745 mmHg 88%
20:00 +12°C° 0.9 mm 7 m/s 745 mmHg 88%
21:00 +12°C° 0.9 mm 8 m/s 746 mmHg 88%
22:00 +12°C° 0.7 mm 7 m/s 746 mmHg 88%
23:00 +12°C° 0.7 mm 7 m/s 746 mmHg 87%

6 Octobre, Mardi

Heure Température Précipitation Vent Pression Humidité
00:00 +12°C° 0.7 mm 7 m/s 746 mmHg 87%
01:00 +12°C° 0.7 mm 7 m/s 747 mmHg 86%
02:00 +12°C° 0.7 mm 7 m/s 747 mmHg 85%
03:00 +12°C° 0.7 mm 8 m/s 747 mmHg 85%
04:00 +12°C° 0.4 mm 7 m/s 748 mmHg 85%
05:00 +11°C° 0.4 mm 7 m/s 748 mmHg 85%
06:00 +11°C° 0.4 mm 7 m/s 748 mmHg 86%
07:00 +11°C° 0.5 mm 7 m/s 748 mmHg 84%
08:00 +12°C° 0.5 mm 7 m/s 749 mmHg 83%
09:00 +12°C° 0.5 mm 7 m/s 749 mmHg 82%
10:00 +13°C° 0.4 mm 8 m/s 749 mmHg 79%
11:00 +13°C° 0.4 mm 8 m/s 749 mmHg 76%
12:00 +13°C° 0.4 mm 8 m/s 749 mmHg 74%
13:00 +13°C° 0.2 mm 8 m/s 749 mmHg 74%
14:00 +13°C° 0.2 mm 8 m/s 749 mmHg 73%
15:00 +14°C° 0.2 mm 7 m/s 749 mmHg 73%
16:00 +13°C° 0.1 mm 6 m/s 749 mmHg 78%
17:00 +12°C° 0.1 mm 5 m/s 749 mmHg 83%
18:00 +12°C° 0.1 mm 4 m/s 749 mmHg 88%
19:00 +12°C° 0.2 mm 4 m/s 748 mmHg 88%
20:00 +12°C° 0.2 mm 4 m/s 748 mmHg 89%
21:00 +12°C° 0.2 mm 4 m/s 748 mmHg 89%
22:00 +12°C° 0.1 mm 4 m/s 748 mmHg 90%
23:00 +12°C° 0.1 mm 3 m/s 748 mmHg 91%
Voir plus

We Need Your Consent

Meteoprog and our Service Providers may store and access personal data such as cookies, device identifiers or other similar technologies on your device and process such data to personalise content and ads, as well as provide social media features and to analyse the traffic.

  • Store and/or access information on your device

    Cookies, device identifiers or other information can be stored or accessed on your device for the purposes indicated above.

  • Personalised ads and content, ad and content measurement, audience insights, and products development

    Ads and content can be personalised based on a profile. More data can be added to better personalise ads and content. Ad and content performance can be measured. Insights about the audience who saw the ads and content can be derived. Such data can be used to develop or improve user’s experience, systems and software.

By clicking ‘I Agree’ you will allow the use of indicated cookies, device identifiers, web beacons or other similar technologies. Your settings can be changed in the browser on your device.

For certain purposes, legitimate interests may be relied on, rather than consent. You can read more about this in our Privacy and Cookie Policy.